STARLINK-34338, 64151

Orbit data source: Space-Track

STARLINK-34338, 64151 is a payload satellite owned by SpaceX/Seattle (US) in SSO that was launched on Tue, 27 May 2025 UTC via an FALCON 9 launch vehicle from the Air Force Western Test Range (AFWTR). Payload-class satellites include a variety of spacecraft equipped with specific instruments for various scientific and technological missions. These include communications satellites like Starlink; space stations such as the ISS; scientific satellites like the Hubble; Earth observation satellites from companies like Planet Labs, Umbra, and HawkEye 360; GPS; miniature CubeSats for education and research; and military/defense satellites.

Loading next visibility...
Identifier
64151, 2025-112F
Orbit
SSO
Country
Flag of USUS
Related business
Manufacturer
SpaceX/Seattle
Mission
Operational Commercial Communications
Bus & Motor
STARLINK V2MO, Unknown motor
Mass
575 kg wet, ~530 kg dry
Launch date (UTC)
2025-05-27 (1 year ago)
Launch vehicle
FALCON 9
Launch site
Air Force Western Test Range (AFWTR)
Object type
Payload
Rocket body
Debris
Shape & HBR
Box + 1 Pan, 17.7 m
Radar Cross Section
41.120 m², Large (>1 m²)

Expand to show TLE details & history
Last TLE update: 18 hours ago

TLE from 18 hours ago
0 STARLINK-34338
1 64151U 25112F   26237.59366149  .00012960  00000-0  40331-3 0  9993
2 64151  97.2829 284.9692 0000999  78.8819 281.2536 15.33427506 68775
Epoch: 2026-08-25T14:14Z
TLE epoch observation values (Epoch: 2026-08-25T14:14:52.352Z)
Latitude
-0.00004°
Longitude
97.39229°
Altitude
468.574 km
Speed
7.632 km/s
True Right ascension
18h 59m 52s
True Declination
0° 00' 00"
Sunlit
Object was in full shadow at epoch
Visualization orbit readout
Latitude
Unknown
Longitude
Unknown
Altitude
Unknown
Speed
Unknown
Apparent Right ascension
Unknown
Apparent Declination
Unknown
Sunlit
N/A
Visualization observer readout
Local Sidereal Time
23:17:47
Azimuth
Unknown
Elevation
Unknown
Doppler factor
Unknown
Orbital elements
Apogee altitude
463.221 km
Perigee altitude
461.855 km
Semi-major axis
6,840.675 km
Eccentricity
0.0001
Inclination
97.2829°
RAAN
284.9692°
Arg. of periapsis
78.8819°
True anomaly
281.24237°
Mean anomaly
281.2536°
Eccentric anomaly
281.24799°
Mean motion
3.83614 °/min
Orbital period
93.84 mins
BSTAR
0.00040331
Loading maneuver chart data...
Computing Atmospheric mass density...
Loading historical data...
Loading historical data...
Loading historical data...
Loading historical data...
Loading historical data...
Loading historical data...
Loading historical data...

Documentation

Showing up to 5 results
|